Previsão horária em Abapo

Hoje, 25 Janeiro, Segunda-feira

Tempo Temperatura Precipitação Vento Pressão Humidade
00:00 +25°C° 0.1 mm 1 m/s 707 mmHg 72%
01:00 +24°C° 0.1 mm 1 m/s 706 mmHg 76%
02:00 +23°C° 0.1 mm 1 m/s 706 mmHg 80%
03:00 +23°C° 0 mm 1 m/s 706 mmHg 81%
04:00 +20°C° 0 mm 0 m/s 706 mmHg 82%
05:00 +20°C° 0 mm 0 m/s 705 mmHg 84%
06:00 +22°C° 0 mm 0 m/s 706 mmHg 76%
07:00 +24°C° 0 mm 0 m/s 707 mmHg 69%
08:00 +26°C° 0 mm 0 m/s 707 mmHg 61%
09:00 +31°C° 0 mm 1 m/s 707 mmHg 53%
10:00 +35°C° 0 mm 2 m/s 707 mmHg 44%
11:00 +38°C° 0 mm 2 m/s 707 mmHg 35%
12:00 +39°C° 0 mm 3 m/s 707 mmHg 32%
13:00 +41°C° 0 mm 4 m/s 706 mmHg 29%
14:00 +43°C° 0 mm 4 m/s 705 mmHg 26%
15:00 +41°C° 0 mm 5 m/s 705 mmHg 30%
16:00 +39°C° 0 mm 6 m/s 704 mmHg 33%
17:00 +38°C° 0 mm 6 m/s 704 mmHg 36%
18:00 +34°C° 0.1 mm 5 m/s 704 mmHg 43%
19:00 +32°C° 0.1 mm 4 m/s 704 mmHg 50%
20:00 +29°C° 0.1 mm 3 m/s 705 mmHg 57%
21:00 +28°C° 0 mm 3 m/s 705 mmHg 61%
22:00 +27°C° 0 mm 3 m/s 705 mmHg 64%
23:00 +26°C° 0 mm 2 m/s 705 mmHg 68%

Amanhã, 26 Janeiro, Terça-feira

Tempo Temperatura Precipitação Vento Pressão Humidade
00:00 +26°C° 0.1 mm 2 m/s 705 mmHg 73%
01:00 +25°C° 0.1 mm 2 m/s 704 mmHg 77%
02:00 +24°C° 0.1 mm 1 m/s 704 mmHg 82%
03:00 +24°C° 0 mm 1 m/s 704 mmHg 83%
04:00 +23°C° 0 mm 1 m/s 704 mmHg 85%
05:00 +23°C° 0 mm 1 m/s 704 mmHg 86%
06:00 +25°C° 0 mm 1 m/s 704 mmHg 81%
07:00 +26°C° 0 mm 1 m/s 705 mmHg 76%
08:00 +26°C° 0 mm 0 m/s 706 mmHg 71%
09:00 +31°C° 0 mm 1 m/s 706 mmHg 58%
10:00 +35°C° 0 mm 2 m/s 706 mmHg 46%
11:00 +39°C° 0 mm 3 m/s 707 mmHg 34%
12:00 +40°C° 0 mm 3 m/s 706 mmHg 31%
13:00 +42°C° 0 mm 4 m/s 705 mmHg 29%
14:00 +43°C° 0 mm 5 m/s 705 mmHg 26%
15:00 +41°C° 0 mm 5 m/s 704 mmHg 29%
16:00 +40°C° 0 mm 6 m/s 704 mmHg 33%
17:00 +39°C° 0 mm 6 m/s 703 mmHg 36%
18:00 +34°C° 0.6 mm 5 m/s 704 mmHg 51%
19:00 +29°C° 0.6 mm 4 m/s 704 mmHg 65%
20:00 +26°C° 0.6 mm 2 m/s 705 mmHg 80%
21:00 +25°C° 0.2 mm 2 m/s 705 mmHg 83%
22:00 +25°C° 0.2 mm 1 m/s 706 mmHg 87%
23:00 +24°C° 0.2 mm 1 m/s 706 mmHg 90%

Depois de amanhã, 27 Janeiro, Quarta-feira

Tempo Temperatura Precipitação Vento Pressão Humidade
00:00 +24°C° 0.7 mm 1 m/s 706 mmHg 92%
01:00 +23°C° 0.7 mm 1 m/s 706 mmHg 93%
02:00 +23°C° 0.7 mm 1 m/s 706 mmHg 95%
03:00 +23°C° 1.4 mm 1 m/s 706 mmHg 95%
04:00 +23°C° 1.4 mm 1 m/s 706 mmHg 96%
05:00 +23°C° 1.4 mm 1 m/s 707 mmHg 96%
06:00 +24°C° 2 mm 1 m/s 707 mmHg 96%
07:00 +24°C° 2 mm 1 m/s 708 mmHg 96%
08:00 +22°C° 2 mm 0 m/s 709 mmHg 96%
09:00 +24°C° 7 mm 1 m/s 709 mmHg 97%
10:00 +24°C° 7 mm 1 m/s 709 mmHg 97%
11:00 +23°C° 7 mm 1 m/s 709 mmHg 98%
12:00 +24°C° 2.5 mm 1 m/s 709 mmHg 97%
13:00 +24°C° 2.5 mm 1 m/s 708 mmHg 96%
14:00 +24°C° 2.5 mm 1 m/s 708 mmHg 95%
15:00 +25°C° 0.1 mm 1 m/s 708 mmHg 90%
16:00 +26°C° 0.1 mm 1 m/s 708 mmHg 85%
17:00 +26°C° 0.1 mm 1 m/s 708 mmHg 80%
18:00 +25°C° 0 mm 1 m/s 708 mmHg 83%
19:00 +25°C° 0 mm 1 m/s 708 mmHg 86%
20:00 +24°C° 0 mm 1 m/s 708 mmHg 89%
21:00 +24°C° 0 mm 1 m/s 708 mmHg 87%
22:00 +24°C° 0 mm 1 m/s 709 mmHg 86%
23:00 +24°C° 0 mm 1 m/s 709 mmHg 85%

28 Janeiro, Quinta-feira

Tempo Temperatura Precipitação Vento Pressão Humidade
00:00 +24°C° 0 mm 1 m/s 709 mmHg 85%
01:00 +22°C° 0 mm 0 m/s 709 mmHg 86%
02:00 +22°C° 0 mm 0 m/s 708 mmHg 86%
03:00 +22°C° 0.1 mm 0 m/s 708 mmHg 86%
04:00 +21°C° 0.1 mm 0 m/s 708 mmHg 87%
05:00 +21°C° 0.1 mm 0 m/s 708 mmHg 87%
06:00 +22°C° 0.2 mm 0 m/s 708 mmHg 85%
07:00 +23°C° 0.2 mm 0 m/s 708 mmHg 83%
08:00 +24°C° 0.2 mm 0 m/s 709 mmHg 82%
09:00 +29°C° 0 mm 1 m/s 709 mmHg 69%
10:00 +32°C° 0 mm 1 m/s 709 mmHg 56%
11:00 +35°C° 0 mm 1 m/s 709 mmHg 44%
12:00 +35°C° 0.2 mm 1 m/s 708 mmHg 45%
13:00 +35°C° 0.2 mm 2 m/s 707 mmHg 46%
14:00 +35°C° 0.2 mm 2 m/s 706 mmHg 47%

29 Janeiro, Sexta-feira

Tempo Temperatura Precipitação Vento Pressão Humidade

30 Janeiro, Sábado

Tempo Temperatura Precipitação Vento Pressão Humidade
Mostrar mais